Flag for Canada Weather past 2 weeks in Québec, Quebec, Canada

Now
72 °F

Sprinkles. Mostly cloudy.


Feels Like: 75 °F
Forecast: 51 / 75 °F
Wind: 12 mph from West

Location: Quebec Weather Station

Current Time: Aug 30, 2014 at 4:38:52 PM

Latest Report: Aug 30, 2014 at 4:00 PM


Visibility: 30 mi

Pressure: 30.01 "Hg

Humidity: 65%

Dew point: 59 °F

Location of QuébecLocation

Historic Weather in Québec — Graph

°F

Québec temperature yesterday

Maximum temperature yesterday: 72 °F (at 3:00 PM)
Minimum temperature yesterday: 46 °F (at 6:00 AM)
Average temperature yesterday: 58 °F

Past Weeks' High & Low Weather Summary

 TemperatureHumidityPressure
High84 °F (Aug 24, 3:00 PM)100% (Aug 16, 6:54 AM)30.23 "Hg (Aug 16, 6:54 AM)
Low46 °F (Aug 29, 6:00 AM)44% (Aug 23, 5:00 PM)29.75 "Hg (Aug 17, 4:00 PM)
Average65 °F77%29.99 "Hg
* Reported Aug 15 3:00 PM — Aug 30 3:00 PM, Québec, Weather by CustomWeather, © 2014

Note: Actual official high and low records may vary slightly from our data, if they occured in-between our weather recording intervals... More about our weather records

Advertising

Québec weather history for previous 24 hours

 ConditionsComfort  
Time TempWeatherWind HumidityBarometerVisibility
3:00 PM
Aug 30
75 °FBroken clouds.15 mph57%30.01 "Hg30 mi
2:00 PM75 °FPartly sunny.16 mph57%30.03 "Hg30 mi
1:00 PM73 °FBroken clouds.13 mph65%30.05 "Hg30 mi
12:00 PM70 °FPartly sunny.8 mph73%30.07 "Hg30 mi
11:00 AM68 °FPartly sunny.12 mph69%30.09 "Hg30 mi
10:00 AM64 °FPartly sunny.9 mph73%30.11 "Hg30 mi
9:00 AM61 °FPartly sunny.6 mph77%30.12 "Hg30 mi
8:00 AM57 °FPartly sunny.2 mph82%30.13 "Hg30 mi
7:00 AM54 °FPassing clouds.5 mph88%30.14 "Hg30 mi
6:00 AM54 °FPassing clouds.5 mph82%30.14 "Hg30 mi
5:00 AM54 °FPassing clouds.3 mph82%30.14 "Hg15 mi
4:00 AM52 °FPassing clouds.No wind88%30.15 "Hg15 mi
3:00 AM54 °FPassing clouds.5 mph82%30.16 "Hg15 mi
2:00 AM52 °FPassing clouds.2 mph88%30.17 "Hg15 mi
1:00 AM52 °FPassing clouds.No wind88%30.17 "Hg15 mi
12:00 AM55 °FClear.5 mph82%30.18 "Hg15 mi
11:00 PM
Aug 29
55 °FClear.3 mph82%30.17 "Hg15 mi
10:00 PM57 °FPassing clouds.2 mph72%30.17 "Hg15 mi
9:00 PM57 °FPassing clouds.2 mph72%30.18 "Hg15 mi
8:00 PM59 °FScattered clouds.No wind77%30.17 "Hg15 mi
7:00 PM64 °FPassing clouds.3 mph60%30.17 "Hg30 mi
6:00 PM70 °FPassing clouds.8 mph46%30.17 "Hg30 mi
5:00 PM72 °FPassing clouds.7 mph44%30.16 "Hg30 mi
Weather by CustomWeather, © 2014

See weather overviewHow to use our weather pages